Alexandria, LA

1:14 AM CDT on May 24, 2017 (GMT -0500)
Alexandria International

Weather History for KAEX - November, 2011

Change the Weather History Date:

Tuesday, November 8, 2011

  Actual Average Record
Temperature  
Mean Temperature 71 °F 60 °F  
Max Temperature 80 °F 72 °F 87 °F (1989)
Min Temperature 61 °F 48 °F 28 °F (1951)
Degree Days  
Heating Degree Days 0 6  
Month to date heating degree days 37 43  
Since 1 July heating degree days 141 116  
Cooling Degree Days 6    
Growing Degree Days 20 (Base 50)    
Moisture  
Dew Point 64 °F    
Average Humidity 78    
Maximum Humidity 93    
Minimum Humidity 62    
Precipitation  
Precipitation 0.42 in 0.14 in 2.81 in (1944)
Month to date precipitation 0.56 1.01  
Year to date precipitation 26.99 45.32  
Snow  
Snow 0.00 in - 0.00 in ()
Month to date snowfall 0.0  
Since 1 July snowfall 0.0  
Since 1 September snowfall 0.0  
Snow Depth 0.00 in    
Sea Level Pressure  
Sea Level Pressure 29.99 in    
Wind  
Wind Speed 12 mph (SSE)    
Max Wind Speed 23 mph    
Max Gust Speed 29 mph    
Visibility 9 miles    
Events Rain , Thunderstorm    
T = Trace of Precipitation, MM = Missing Value Source: NWS Daily Summary

Daily Weather History Graph

Daily Weather History Graph

Search for Another Location

Airport or City:

Trip Planner

Search our weather history database for the weather conditions in past years. The results will help you decide how hot, cold, wet, or windy it might be!

Date:

Astronomy

Nov. 08, 2011 Rise Set
Actual Time 6:31 AM CST 5:16 PM CST
Civil Twilight 6:06 AM CST 5:41 PM CST
Nautical Twilight 5:37 AM CST 6:10 PM CST
Astronomical Twilight 5:08 AM CST 6:38 PM CST
Moon 3:53 PM CST (11/8) 4:35 AM CST (11/8)
Length of Visible Light 11h 35m
Length of Day
10h 44m
Waxing Gibbous, 96% of the Moon is Illuminated
Nov 8
Waxing Gibbous
Nov 10
Full
Nov 18
Last Quarter
Nov 25
New
Dec 2
First Quarter

Hourly Weather History & Observations

Time (CST) Temp. Dew Point Humidity Pressure Visibility Wind Dir Wind Speed Gust Speed Precip Events Conditions
12:53 AM 63.0 °F 60.1 °F 90% 30.05 in 10.0 mi SE 5.8 mph - N/A   Scattered Clouds
1:04 AM 64.4 °F 60.8 °F 88% 30.03 in 10.0 mi SE 8.1 mph - N/A   Mostly Cloudy
1:53 AM 64.0 °F 62.1 °F 93% 30.04 in 10.0 mi SE 10.4 mph - N/A   Overcast
2:53 AM 64.0 °F 62.1 °F 93% 30.02 in 10.0 mi SE 10.4 mph - N/A   Overcast
3:53 AM 64.0 °F 62.1 °F 93% 30.01 in 10.0 mi SE 9.2 mph - N/A   Overcast
4:09 AM 64.4 °F 62.6 °F 94% 30.01 in 10.0 mi SE 8.1 mph - N/A   Overcast
4:53 AM 64.4 °F 62.6 °F 94% 30.01 in 10.0 mi SE 6.9 mph - N/A   Overcast
5:53 AM 64.0 °F 62.1 °F 93% 30.02 in 10.0 mi SE 8.1 mph - N/A   Overcast
6:19 AM 64.4 °F 62.6 °F 94% 30.01 in 9.0 mi SSE 6.9 mph - N/A   Overcast
6:53 AM 64.9 °F 63.0 °F 93% 30.03 in 9.0 mi SE 8.1 mph - N/A   Overcast
7:53 AM 66.0 °F 64.0 °F 93% 30.04 in 9.0 mi SE 10.4 mph - N/A   Overcast
8:53 AM 68.0 °F 64.0 °F 87% 30.06 in 10.0 mi SE 12.7 mph - N/A   Overcast
9:04 AM 69.8 °F 64.4 °F 83% 30.04 in 10.0 mi SE 11.5 mph - N/A   Overcast
9:20 AM 71.6 °F 64.4 °F 78% 30.04 in 10.0 mi SE 10.4 mph - N/A   Mostly Cloudy
9:53 AM 73.9 °F 64.0 °F 71% 30.04 in 10.0 mi SSE 13.8 mph - N/A   Mostly Cloudy
10:16 AM 75.2 °F 64.4 °F 69% 30.03 in 10.0 mi SSE 16.1 mph - N/A   Scattered Clouds
10:53 AM 75.9 °F 64.9 °F 69% 30.02 in 10.0 mi SSE 12.7 mph 24.2 mph N/A   Mostly Cloudy
11:53 AM 77.0 °F 64.9 °F 66% 30.00 in 10.0 mi SSE 10.4 mph 19.6 mph N/A   Mostly Cloudy
12:11 PM 78.8 °F 64.4 °F 61% 29.98 in 10.0 mi South 13.8 mph 23.0 mph N/A   Mostly Cloudy
12:53 PM 78.1 °F 64.9 °F 64% 29.97 in 10.0 mi SSE 17.3 mph - N/A   Mostly Cloudy
1:53 PM 79.0 °F 66.0 °F 64% 29.94 in 10.0 mi SE 17.3 mph 24.2 mph N/A   Scattered Clouds
2:53 PM 78.1 °F 66.0 °F 66% 29.91 in 10.0 mi SSE 13.8 mph - N/A   Mostly Cloudy
3:53 PM 75.9 °F 66.0 °F 71% 29.91 in 10.0 mi SE 12.7 mph - N/A   Scattered Clouds
4:53 PM 75.2 °F 66.2 °F 73% 29.91 in 10.0 mi SE 12.7 mph - N/A   Mostly Cloudy
5:53 PM 75.0 °F 66.0 °F 73% 29.91 in 10.0 mi SSE 16.1 mph 21.9 mph 0.00 in   Clear
6:53 PM 73.9 °F 66.0 °F 76% 29.91 in 10.0 mi SSE 13.8 mph 23.0 mph 0.00 in Rain Light Rain
7:53 PM 73.0 °F 66.9 °F 81% 29.92 in 10.0 mi SSE 11.5 mph 23.0 mph 0.00 in Rain Light Rain
8:49 PM 73.4 °F 68.0 °F 83% 29.94 in 10.0 mi South 10.4 mph - 0.00 in Rain , Thunderstorm Light Rain
8:53 PM 72.0 °F 68.0 °F 87% 29.96 in 10.0 mi SSW 10.4 mph - 0.00 in Rain , Thunderstorm Light Rain
9:04 PM 71.6 °F 68.0 °F 88% 29.96 in 10.0 mi South 6.9 mph - 0.01 in Rain Light Rain
9:20 PM 71.6 °F 69.8 °F 94% 29.96 in 6.0 mi South 5.8 mph - 0.05 in Rain , Thunderstorm Thunderstorms and Rain
9:53 PM 71.1 °F 69.1 °F 93% 29.99 in 7.0 mi SSE 8.1 mph - 0.13 in Rain , Thunderstorm Rain
10:49 PM 71.6 °F 69.8 °F 94% 29.98 in 7.0 mi Variable 6.9 mph - 0.21 in Rain Light Rain
10:53 PM 69.8 °F 68.0 °F 94% 29.99 in 6.0 mi NW 13.8 mph 19.6 mph N/A Rain Heavy Rain
10:59 PM 66.2 °F 62.6 °F 88% 30.01 in 4.0 mi NW 23.0 mph 28.8 mph 0.02 in Rain , Thunderstorm Heavy Rain
11:01 PM 64.4 °F 62.6 °F 94% 30.01 in 5.0 mi NW 19.6 mph 28.8 mph 0.03 in Rain , Thunderstorm Rain
11:05 PM 64.4 °F 62.6 °F 94% 30.00 in 6.0 mi NNW 18.4 mph 28.8 mph N/A Rain , Thunderstorm Rain
11:14 PM 64.4 °F 60.8 °F 88% 30.01 in 8.0 mi NW 17.3 mph 24.2 mph 0.05 in Rain Light Rain
11:33 PM 62.6 °F 60.8 °F 94% 30.02 in 10.0 mi NNW 13.8 mph 24.2 mph 0.05 in Rain Light Rain
11:53 PM 62.1 °F 60.1 °F 93% 30.03 in 10.0 mi NNW 9.2 mph 18.4 mph 0.05 in   Overcast